sat.trackr.live / text

‹ back to catalog

STARLINK-5495

NORAD 55635 · 2023-021H

PAYLOAD ACTIVE UNKNOWN

§ Identity

Operator
Country
US
Launch date
2023-02-17
Launch site
AFWTR
Launch vehicle
Mass (kg)
RCS (m²)

Purposes: comms

External: N2YO · Heavens-Above · Gunter

§ Orbital elements

Epoch: 2026-09-20T21:54:06.892128Z

Period
96.11 min
Inclination
70.0003°
Eccentricity
0.0003061
Mean motion
14.98331653 rev/d
Perigee alt
569.9 km
Apogee alt
574.2 km
Semi-major
6,950.2 km
B*
3.6738e-5
RAAN
52.2445°
Arg perigee
269.5002°
Mean anomaly
90.5806°
Rev number
19,803

§ Raw data

STARLINK-54951 55635U 23021H   26263.91257977  .00000345  00000+0  36738-4 0  99902 55635  70.0003  52.2445 0003061 269.5002  90.5806 14.98331653198034

JSON: /api/v1/satellites/55635 · /tle

For live sub-satellite position, see the globe view (requires WebGL).

§ Visibility from observer

Set your observer location to see the next 7 days of passes ≥ 10°. The values pass through the URL so the page stays shareable.

No JS? Fill the form by hand. The geolocation button needs JavaScript.